Regional Weather Roundup
Issued by NWS

Home | Current Version | Previous Version | Text Only | Print | Product List | Glossary On
Versions: 1 2 3 4 5 6 7 8 9 10 11 12 13 14 15 16 17 18 19 20 21 22 23 24 25 26 27 28 29 30 31 32 33 34 35 36 37 38 39 40 41 42 43 44 45 46 47 48 49 50
000
ASUS43 KMKX 161000
RWRWI

WISCONSIN REGIONAL WEATHER ROUNDUP
NATIONAL WEATHER SERVICE MILWAUKEE/SULLIVAN WI
500 AM CDT MON OCT 16 2017

NOTE: "FAIR" INDICATES FEW OR NO CLOUDS BELOW 12,000 FEET WITH NO
SIGNIFICANT WEATHER AND/OR OBSTRUCTIONS TO VISIBILITY.

WIZ001-002-006>008-014>016-023>028-161100-
NORTHWEST WISCONSIN

CITY           SKY/WX    TMP DP  RH WIND       PRES   REMARKS
SUPERIOR ARPT  PTCLDY    35  34  97 SW8       30.17S WCI  28
ASHLAND        CLEAR     38  34  85 SW9       30.17S WCI  31
HAYWARD        CLEAR     30  28  92 CALM      30.19S
SIREN          CLEAR     31  30  96 CALM      30.20S
CUMBERLAND     CLEAR     32  32 100 CALM      30.20S
RICE LAKE      FOG       32  32  99 CALM      30.22R VSB 1/4
CHETEK         CLEAR     32  32 100 CALM      30.21R FOG
LADYSMITH      CLEAR     33  32  96 CALM      30.22R
EAU CLAIRE     NOT AVBL
MENOMONIE      CLEAR     36  35  96 CALM      30.22S
NEW RICHMOND   MOCLDY    37  36  99 S3        30.22S
OSCEOLA        PTCLDY    32  32 100 CALM      30.24S
$$

WIZ003>005-009-010-017-018-161100-
NORTH CENTRAL WISCONSIN

CITY           SKY/WX    TMP DP  RH WIND       PRES   REMARKS
MANITOWISH WTR FOG       28  28 100 CALM      30.17R VSB 3/4
ARBOR VITAE    CLEAR     32  31  97 CALM      30.17R
WOODRUFF       CLEAR     32  31  97 CALM      30.17R
RHINELANDER    CLEAR     30  30 100 W5        30.19R WCI  25
EAGLE RIVER    PTCLDY    30  30 100 CALM      30.17R
LAND O LAKES   CLEAR     29  29 100 CALM      30.18R
PHILLIPS       CLEAR     29  29  98 CALM      30.18R
TOMAHAWK       CLEAR     28  27  96 CALM      30.20R
MEDFORD        CLEAR     33  32  97 SW3       30.20R
MERRILL        MOCLDY    30  30 100 CALM      30.21R
$$

WIZ029-030-035-036-043>047-161100-
CENTRAL WISCONSIN

CITY           SKY/WX    TMP DP  RH WIND       PRES   REMARKS
WAUSAU         CLEAR     35  34  96 CALM      30.20R
MOSINEE        CLEAR     37  36  93 W3        30.22R
MARSHFIELD     CLEAR     35  33  92 CALM      30.21R FOG
STEVENS POINT  CLEAR     31  31 100 CALM      30.23R FOG
WAUPACA        CLEAR     38  37  95 CALM      30.23R
WAUTOMA        CLEAR     36  36 100 CALM      30.24R
WISC RAPIDS    FOG       34  33  96 CALM      30.24R VSB 1/2
CAMP DOUGLAS   FOG       32  32 100 CALM      30.23R VSB 1
$$

WIZ011>013-019>022-031-037>040-048>050-161100-
NORTHEAST WISCONSIN

CITY           SKY/WX    TMP DP  RH WIND       PRES   REMARKS
ANTIGO         CLEAR     32  32 100 CALM      30.20R
SHAWANO        CLEAR     39  37  92 CALM      30.21S
OCONTO         PTCLDY    34  33  99 CALM      30.20R
STURGEON BAY   CLEAR     41  39  93 SW6       30.21R
GREEN BAY      CLOUDY    42  41  96 W7        30.22R
MANITOWOC      CLOUDY    43  40  89 W6        30.23R
APPLETON       MOCLDY    37  37 100 W8        30.21R WCI  31
CLINTONVILLE   PTCLDY    37  36  93 CALM      30.22R FOG
OSHKOSH        CLOUDY    43  40  89 W3        30.23R
$$

WIZ032>034-041-042-053>061-161100-
SOUTHWEST WISCONSIN

CITY           SKY/WX    TMP DP  RH WIND       PRES   REMARKS
LA CROSSE      CLEAR     40  39  97 SE6       30.25R
SPARTA         CLOUDY    29  29 100 CALM      30.25R
VIROQUA        CLEAR     39  38  97 W5        30.23R
BOSCOBEL       FOG       39  38  96 SW3       30.26R VSB 1/4
PRAIRIE DU CHI CLEAR     38  35  90 CALM      30.26R
PLATTEVILLE    CLEAR     38  38 100 SW3       30.25S
$$

WIZ056-057-062-063-064-067-068-161100-
SOUTH CENTRAL WISCONSIN

CITY           SKY/WX    TMP DP  RH WIND       PRES   REMARKS
REEDSBURG      CLEAR     36  36 100 CALM      30.24R
BARABOO/DELLS  CLEAR     37  35  96 S5        30.24R WCI  33
LONE ROCK      FOG       34  34 100 CALM      30.25S VSB 1/4
MINERAL POINT  CLEAR     41  41 100 S3        30.24S
MADISON        CLEAR     40  38  93 CALM      30.25R
MIDDLETON      CLEAR     40  40 100 CALM      30.25S
WATERTOWN      CLOUDY    43  43 100 CALM      30.25R
MONROE         CLEAR     41  37  87 SW8       30.25S
JANESVILLE     MOCLDY    43  43 100 CALM      30.26R
$$

WIZ051-052-058>065-066-070>072-161100-
SOUTHEAST WISCONSIN

CITY           SKY/WX    TMP DP  RH WIND       PRES   REMARKS
MILWAUKEE      CLOUDY    47  41  80 W6        30.25R
WAUKESHA       CLOUDY    41  37  87 SW3       30.26R
MILWAUKEE/TIMM CLOUDY    43  37  81 W5        30.26R
RACINE         CLOUDY    45  41  86 W7        30.27R
BURLINGTON     PTCLDY    44  44 100 CALM      30.26R
KENOSHA        CLOUDY    44  41  89 W6        30.26R
FOND DU LAC    CLOUDY    44  40  85 SW3       30.24R
SHEBOYGAN      MOCLDY    43  41  93 W5        30.23R
WEST BEND      CLOUDY    43  41  93 W3        30.24R
JUNEAU         MOCLDY    40  39  97 CALM      30.25R
$$

LSZ147-162-161100-
LAKE SUPERIOR

STATION/POSITION TIME  TEMP    WIND        PRES    WAVE
                       AIR SEA DIR/SP/G            HT/PER
                 (UTC) (F)     (DEG/KT/KT) (MB)    (FT/S)
W MID LAKE BUOY  0850   49 53              1020.1R   2/ 5
DEVILS ISLAND    0900   47     240/ 16/ 19 1020.9R
PORT WING        0840          170/  6/  7 1021.3S
SAXON HARBOR     0940   39     200/  6/ 10 1020.7F
$$

LMZ867-665-643>646-161100-
LAKE MICHIGAN

STATION/POSITION TIME  TEMP    WIND        PRES    WAVE
                       AIR SEA DIR/SP/G            HT/PER
                 (UTC) (F)     (DEG/KT/KT) (MB)    (FT/S)
S GREEN BAY BUOY 0930   46 58  290/ 12/ 14 1022.2R
N MID LAKE BUOY  0850   49 60  230/  2/  6 1022.9R   1
NORTHPORT PIER   0940   41     200/  2/  4 1022.0S
KEWAUNEE LAKESHO 0930   41     280/  6/  8 1022.1R
SHEBOYGAN LAKESH 0900   46     280/  9/ 11 1023.2R
PORT WASHINGTON  0930   46     280/  4/  8 1024.7R
MILWAUKEE LAKESH 0930   37     280/  8/ 10   N/A
S MID LAKE BUOY  0850   52 62  320/ 16/ 21 1023.6S   5/ 6
KENOSHA   LAKESH 0900   46     260/  7/  9 1024.0
$$

TC  - TEMPERATURE IN CELSIUS
VSB - VISIBILITY IN STATUTE MILES
WCI - WIND CHILL INDEX
HX  - HEAT INDEX





USA.gov is the U.S. government's official web portal to all federal, state and local government web resources and services.